OBJECT F, 62614

Orbit data source: Space-Track

You're viewing an Uncataloged Satellite

Recently launched and/or uncataloged satellites may have evolving metadata. Metadata may include but not limited to: Owner, Maufacturer, Bus, Motor, and Mission.

OBJECT F, 62614 is a satellite in SSO that was launched on Tue, 14 Jan 2025 UTC via an FALCON 9 launch vehicle from the Air Force Western Test Range (AFWTR). Unknown objects in Earth's orbit typically refer to objects detected orbiting the Earth but have not yet been identified or cataloged. These objects could be anything from previously untracked satellites, spent rocket stages, debris from satellite collisions, or even natural meteoroids temporarily captured by Earth's gravity.

Loading next visibility...
Identifier
62614, 2025-009F
Orbit
SSO
Country
Flag of TBDTBD
Related business
None
Manufacturer
Unknown
Mission
Operational Amateur Technology
Bus & Motor
Unknown
Mass
Unknown
Launch date (UTC)
2025-01-14 (9 months ago)
Launch vehicle
FALCON 9
Launch site
Air Force Western Test Range (AFWTR)
Object type
Unknown
Shape & HBR
Box, 0.3 m
Radar Cross Section
0.015 m², Medium (>0.1 m² and < 1m²)

Expand to show TLE details & history
Last TLE update: 14 hours ago

TLE from 14 hours ago
0 OBJECT F
1 62614U 25009F   25300.77892609  .00059568  00000-0  15410-2 0  9999
2 62614  97.4132  21.9825 0004092  58.8162 301.3484 15.38869627 43622
Epoch: 2025-10-27T18:41Z
TLE epoch observation values (Epoch: 2025-10-27T18:41:39.214Z)
Latitude
-0.00001°
Longitude
65.19323°
Altitude
451.113 km
Speed
7.642 km/s
True Right ascension
01h 27m 55s
True Declination
0° 00' 00"
Sunlit
Object was in full shadow at epoch
Visualization orbit readout
Latitude
Unknown
Longitude
Unknown
Altitude
Unknown
Speed
Unknown
Apparent Right ascension
Unknown
Apparent Declination
Unknown
Sunlit
N/A
Visualization observer readout
Local Sidereal Time
03:53:12
Azimuth
Unknown
Elevation
Unknown
Doppler factor
Unknown
Orbital elements
Apogee altitude
449.184 km
Perigee altitude
443.599 km
Semi-major axis
6,824.529 km
Eccentricity
0.00041
Inclination
97.4132°
RAAN
21.9825°
Arg. of periapsis
58.8162°
True anomaly
301.30834°
Mean anomaly
301.3484°
Eccentric anomaly
301.32837°
Mean motion
3.84976 °/min
Orbital period
93.51 mins
BSTAR
0.001541
Loading maneuver chart data...
Computing Atmospheric mass density...
Loading historical data...
Loading historical data...
Loading historical data...
Loading historical data...
Loading historical data...
Loading historical data...
Loading historical data...

Documentation

Showing up to 5 results
|